KF5JED-13 Weather Reports


time (UTC)temp
F
wind
direction
speed
knots
gust
knots
rain 1hr
in
rain 24hr
in
rain mn
in
humidity
%
barometer
mb
20260504090128 59 209 11.3 14.8 0.00 0.00 0.00 59 1009.9
20260504081558 60 212 16.5 21.7 0.00 0.00 0.00 56 1010.2
20260504081054 60 212 16.5 20.0 0.00 0.00 0.00 55 1010.2
20260504080551 60 211 13.0 15.6 0.00 0.00 0.00 55 1010.2
20260504050404 56 177 3.5 5.2 0.00 0.00 0.00 48 1012.1
20260504045901 57 187 3.5 6.1 0.00 0.00 0.00 48 1012.2
20260504045356 57 196 4.3 7.8 0.00 0.00 0.00 47 1012.2
20260504044853 58 175 4.3 7.8 0.00 0.00 0.00 46 1012.0
20260504044350 59 189 7.0 8.7 0.00 0.00 0.00 45 1012.1
20260504043848 59 169 7.0 9.6 0.00 0.00 0.00 45 1012.2
20260504043344 59 184 7.8 9.6 0.00 0.00 0.00 45 1012.2
20260504042842 59 193 5.2 8.7 0.00 0.00 0.00 44 1012.3
20260504042338 59 195 5.2 9.6 0.00 0.00 0.00 45 1012.5
20260504041835 58 193 3.5 6.1 0.00 0.00 0.00 45 1012.5
20260504041331 58 188 5.2 7.8 0.00 0.00 0.00 46 1012.3
20260504040827 58 169 5.2 7.8 0.00 0.00 0.00 45 1012.2
20260504040325 57 154 5.2 6.1 0.00 0.00 0.00 46 1012.3
20260504035820 58 159 3.5 6.1 0.00 0.00 0.00 46 1012.5
20260504035318 58 163 7.0 7.8 0.00 0.00 0.00 46 1012.6
20260504034815 57 165 5.2 7.8 0.00 0.00 0.00 47 1012.5
20260504034313 57 159 4.3 5.2 0.00 0.00 0.00 47 1012.3
20260504033810 57 153 4.3 5.2 0.00 0.00 0.00 46 1012.5
20260504033308 60 157 5.2 8.7 0.00 0.00 0.00 43 1012.6
20260504032804 61 153 7.8 9.6 0.00 0.00 0.00 42 1012.6
20260504032301 58 140 3.5 6.1 0.00 0.00 0.00 44 1012.3
20260504031757 57 151 3.5 4.3 0.00 0.00 0.00 44 1012.5
20260504031255 57 153 2.6 2.6 0.00 0.00 0.00 44 1012.3
20260504030751 58 151 3.5 4.3 0.00 0.00 0.00 43 1012.2
20260504030248 58 146 3.5 4.3 0.00 0.00 0.00 44 1012.3
20260504025745 58 154 2.6 3.5 0.00 0.00 0.00 44 1012.3
20260504025242 58 155 2.6 3.5 0.00 0.00 0.00 44 1012.2
20260504024739 59 156 3.5 3.5 0.00 0.00 0.00 43 1012.3
20260504024235 61 154 4.3 5.2 0.00 0.00 0.00 40 1012.5
20260504023732 62 149 3.5 5.2 0.00 0.00 0.00 40 1012.5
20260504023228 62 164 2.6 3.5 0.00 0.00 0.00 40 1012.3
20260504022724 63 171 2.6 3.5 0.00 0.00 0.00 39 1012.1
20260504022220 64 186 2.6 4.3 0.00 0.00 0.00 38 1012.3
20260504021718 65 188 4.3 4.3 0.00 0.00 0.00 38 1012.2
20260504021215 66 197 4.3 6.1 0.00 0.00 0.00 37 1012.2
20260504020712 67 207 5.2 6.1 0.00 0.00 0.00 37 1012.2
20260504020208 68 196 3.5 7.0 0.00 0.00 0.00 36 1012.0
20260504015705 69 205 6.1 8.7 0.00 0.00 0.00 35 1012.1
20260504015201 70 200 7.8 12.2 0.00 0.00 0.00 34 1012.2
20260504014656 71 206 9.6 13.0 0.00 0.00 0.00 33 1012.1
20260504014154 72 209 10.4 16.5 0.00 0.00 0.00 32 1012.0
20260504013652 71 208 7.8 11.3 0.00 0.00 0.00 33 1012.0
20260504013148 71 198 7.8 13.9 0.00 0.00 0.00 33 1011.9
20260504012645 72 209 11.3 15.6 0.00 0.00 0.00 32 1011.8
20260504012143 73 210 10.4 15.6 0.00 0.00 0.00 32 1012.0
20260504011640 73 206 13.9 17.4 0.00 0.00 0.00 31 1012.1
20260504011136 73 209 8.7 15.6 0.00 0.00 0.00 31 1011.8
20260504010632 74 218 7.0 17.4 0.00 0.00 0.00 31 1012.0
20260504010128 74 206 11.3 15.6 0.00 0.00 0.00 30 1012.0
20260504005625 74 210 6.1 14.8 0.00 0.00 0.00 31 1012.1
20260504005122 74 215 14.8 15.6 0.00 0.00 0.00 30 1012.1
20260504004620 74 203 13.0 19.1 0.00 0.00 0.00 30 1012.1
20260504004117 75 211 15.6 18.2 0.00 0.00 0.00 29 1012.3
20260504003614 75 214 11.3 15.6 0.00 0.00 0.00 29 1012.0
20260504003110 75 214 14.8 19.1 0.00 0.00 0.00 29 1012.1
20260504002607 75 212 14.8 19.1 0.00 0.00 0.00 29 1012.3
20260504002105 76 216 14.8 21.7 0.00 0.00 0.00 29 1012.5
20260504001602 76 229 13.0 20.9 0.00 0.00 0.00 29 1012.5
20260504001058 76 209 14.8 18.2 0.00 0.00 0.00 29 1012.2
20260504000555 76 218 13.0 20.0 0.00 0.00 0.00 29 1012.7
20260504000053 76 197 14.8 21.7 0.00 0.00 0.00 29 1012.3
20260503235551 77 200 14.8 20.9 0.00 0.00 0.00 28 1012.3
20260503235048 77 210 16.5 20.0 0.00 0.00 0.00 28 1012.2
20260503234545 76 220 13.0 24.3 0.00 0.00 0.00 29 1012.5
20260503234043 77 216 16.5 23.5 0.00 0.00 0.00 28 1012.3
20260503233539 78 210 13.0 19.1 0.00 0.00 0.00 27 1012.2
20260503233035 77 211 20.9 24.3 0.00 0.00 0.00 28 1012.5
20260503232533 77 202 12.2 17.4 0.00 0.00 0.00 28 1012.5
20260503232030 77 213 16.5 18.2 0.00 0.00 0.00 28 1012.3
20260503231528 78 221 13.0 20.0 0.00 0.00 0.00 26 1012.5
20260503231024 78 203 13.0 23.5 0.00 0.00 0.00 26 1012.5
20260503230521 78 208 11.3 17.4 0.00 0.00 0.00 26 1012.2
20260503230019 78 206 13.0 19.1 0.00 0.00 0.00 25 1012.5
20260503225515 79 218 25.2 31.3 0.00 0.00 0.00 25 1012.0
20260503225010 79 176 12.2 22.6 0.00 0.00 0.00 24 1012.6
20260503224508 78 221 13.0 23.5 0.00 0.00 0.00 25 1012.8
20260503224006 78 211 13.9 21.7 0.00 0.00 0.00 25 1012.7
20260503223503 78 231 10.4 14.8 0.00 0.00 0.00 25 1012.8
20260503222958 78 228 13.9 20.0 0.00 0.00 0.00 25 1012.7
20260503222457 78 204 13.9 15.6 0.00 0.00 0.00 24 1013.0
20260503221955 78 206 9.6 21.7 0.00 0.00 0.00 25 1012.9
20260503221453 78 208 10.4 19.1 0.00 0.00 0.00 24 1013.2
20260503220949 79 213 13.0 16.5 0.00 0.00 0.00 24 1013.2
20260503220446 78 213 15.6 20.0 0.00 0.00 0.00 24 1013.1
20260503215943 78 206 13.9 17.4 0.00 0.00 0.00 26 1013.3
20260503215440 78 226 14.8 22.6 0.00 0.00 0.00 25 1013.5
20260503214938 77 214 11.3 14.8 0.00 0.00 0.00 25 1013.6
20260503214435 78 215 9.6 16.5 0.00 0.00 0.00 24 1013.6
20260503213932 78 246 7.8 17.4 0.00 0.00 0.00 24 1013.9
20260503213431 78 218 12.2 13.9 0.00 0.00 0.00 25 1013.8
20260503212926 78 240 10.4 22.6 0.00 0.00 0.00 25 1013.8
20260503212424 77 224 12.2 20.0 0.00 0.00 0.00 25 1014.1
20260503211921 76 211 10.4 19.1 0.00 0.00 0.00 25 1014.1
20260503211418 77 223 11.3 18.2 0.00 0.00 0.00 25 1014.3
20260503210913 77 208 15.6 17.4 0.00 0.00 0.00 24 1014.2
20260503210410 77 229 12.2 21.7 0.00 0.00 0.00 25 1014.3
20260503205904 77 206 11.3 13.9 0.00 0.00 0.00 25 1014.5
20260503205402 77 210 13.0 15.6 0.00 0.00 0.00 25 1014.6
20260503204858 77 239 14.8 19.1 0.00 0.00 0.00 24 1014.6
20260503204356 78 225 10.4 15.6 0.00 0.00 0.00 24 1014.8
20260503203853 77 234 10.4 13.9 0.00 0.00 0.00 24 1014.8
20260503203350 77 205 16.5 23.5 0.00 0.00 0.00 25 1015.0
20260503202846 78 207 15.6 18.2 0.00 0.00 0.00 24 1015.2
20260503202345 79 225 13.9 15.6 0.00 0.00 0.00 24 1015.2
20260503201843 77 234 13.9 20.0 0.00 0.00 0.00 25 1015.3
20260503201339 77 221 12.2 15.6 0.00 0.00 0.00 25 1015.3
20260503200837 76 229 8.7 15.6 0.00 0.00 0.00 25 1015.5
20260503200332 77 213 13.9 19.1 0.00 0.00 0.00 25 1015.5
20260503195831 77 231 17.4 20.0 0.00 0.00 0.00 26 1015.6
20260503195327 77 209 17.4 20.0 0.00 0.00 0.00 24 1015.6
20260503194824 76 225 12.2 21.7 0.00 0.00 0.00 25 1016.1
20260503194320 76 206 7.0 16.5 0.00 0.00 0.00 26 1016.0
20260503193816 76 207 12.2 22.6 0.00 0.00 0.00 25 1016.0
20260503193312 78 229 11.3 20.0 0.00 0.00 0.00 24 1016.1
20260503192808 76 199 16.5 19.1 0.00 0.00 0.00 26 1016.1
20260503192305 74 216 12.2 21.7 0.00 0.00 0.00 28 1016.1
20260503191800 75 207 12.2 19.1 0.00 0.00 0.00 27 1016.5
20260503191258 74 232 14.8 24.3 0.00 0.00 0.00 27 1016.5
20260503190754 75 217 11.3 21.7 0.00 0.00 0.00 27 1016.2
20260503190251 74 217 13.0 18.2 0.00 0.00 0.00 29 1016.5
20260503185748 75 225 15.6 20.0 0.00 0.00 0.00 27 1016.7
20260503185244 74 228 14.8 20.0 0.00 0.00 0.00 27 1016.8
20260503184738 75 224 7.8 19.1 0.00 0.00 0.00 27 1016.7
20260503184235 75 208 14.8 23.5 0.00 0.00 0.00 26 1016.9
20260503183731 74 215 18.2 24.3 0.00 0.00 0.00 28 1017.1
20260503183229 74 192 15.6 26.1 0.00 0.00 0.00 29 1017.0
20260503182726 74 229 13.9 18.2 0.00 0.00 0.00 29 1017.5
20260503182225 73 211 15.6 22.6 0.00 0.00 0.00 30 1017.2
20260503181721 74 220 12.2 15.6 0.00 0.00 0.00 28 1017.6
20260503181218 74 224 13.9 17.4 0.00 0.00 0.00 28 1017.5
20260503180715 74 209 14.8 20.0 0.00 0.00 0.00 28 1017.7
20260503180213 72 224 11.3 18.2 0.00 0.00 0.00 29 1017.7
20260503175710 72 218 8.7 21.7 0.00 0.00 0.00 29 1017.7
20260503175208 73 213 13.0 18.2 0.00 0.00 0.00 29 1017.8
20260503174703 72 203 12.2 20.9 0.00 0.00 0.00 31 1017.9
20260503174201 73 223 15.6 18.2 0.00 0.00 0.00 30 1018.0
20260503173656 71 216 13.9 18.2 0.00 0.00 0.00 32 1018.0
20260503173152 71 230 16.5 24.3 0.00 0.00 0.00 31 1018.1
20260503172649 71 229 12.2 20.9 0.00 0.00 0.00 32 1018.4
20260503172147 71 205 13.9 20.0 0.00 0.00 0.00 30 1018.5
20260503171643 71 203 13.0 20.0 0.00 0.00 0.00 33 1018.7
20260503171141 71 223 10.4 24.3 0.00 0.00 0.00 32 1018.5
20260503170637 70 208 9.6 18.2 0.00 0.00 0.00 33 1018.7
20260503170134 71 210 18.2 21.7 0.00 0.00 0.00 32 1018.9
20260503150526 64 229 10.4 18.2 0.00 0.00 0.00 47 1019.8
20260503131419 51 211 5.2 7.8 0.00 0.00 0.00 69 1020.4
20260503130915 51 220 3.5 7.0 0.00 0.00 0.00 71 1020.1
20260503130413 50 216 5.2 13.0 0.00 0.00 0.00 71 1020.2
20260503110812 47 229 1.7 6.1 0.00 0.00 0.00 76 1019.6
20260503110309 46 192 1.7 2.6 0.00 0.00 0.00 76 1019.6
20260503100235 50 224 1.7 9.6 0.00 0.00 0.00 70 1020.0